When you browse on this site, cookies collect data to enhance your experience and personalize the content and advertising you see.
Visit our Privacy Policy to learn more. By continuing to use the site, you agree to this use of cookies and data.
  • In Austria
  • List of Countries
  • For 7 days
  • Water Temperature
  • Weather Map
  • News
  • Weather Widgets
  • user-avatar
    Login

    Hourly Weather Atotonilco el Grande

    Today, 8 December, Sunday

    Time Temperature Precipitation Wind Pressure Humidity
    00:00 +10°C° 0 mm 0 mps 595 mmHg 86%
    01:00 +11°C° 0 mm 1 mps 594 mmHg 89%
    02:00 +10°C° 0 mm 1 mps 593 mmHg 91%
    03:00 +10°C° 0 mm 1 mps 593 mmHg 90%
    04:00 +10°C° 0 mm 1 mps 593 mmHg 90%
    05:00 +9°C° 0 mm 1 mps 593 mmHg 90%
    06:00 +11°C° 0 mm 1 mps 594 mmHg 82%
    07:00 +13°C° 0 mm 1 mps 595 mmHg 74%
    08:00 +15°C° 0 mm 1 mps 596 mmHg 66%
    09:00 +18°C° 0 mm 1 mps 597 mmHg 56%
    10:00 +20°C° 0 mm 1 mps 597 mmHg 47%
    11:00 +21°C° 0 mm 2 mps 597 mmHg 38%
    12:00 +21°C° 0 mm 2 mps 597 mmHg 37%
    13:00 +23°C° 0 mm 2 mps 596 mmHg 36%
    14:00 +23°C° 0 mm 2 mps 596 mmHg 34%
    15:00 +20°C° 0 mm 2 mps 595 mmHg 44%
    16:00 +18°C° 0 mm 2 mps 594 mmHg 54%
    17:00 +16°C° 0 mm 1 mps 593 mmHg 64%
    18:00 +15°C° 0 mm 1 mps 593 mmHg 69%
    19:00 +14°C° 0 mm 1 mps 593 mmHg 74%
    20:00 +12°C° 0 mm 0 mps 593 mmHg 79%
    21:00 +13°C° 0 mm 1 mps 593 mmHg 75%
    22:00 +13°C° 0 mm 1 mps 593 mmHg 72%
    23:00 +12°C° 0 mm 1 mps 592 mmHg 68%

    Tomorrow, 9 December, Monday

    Time Temperature Precipitation Wind Pressure Humidity
    00:00 +12°C° 0 mm 1 mps 592 mmHg 66%
    01:00 +12°C° 0 mm 1 mps 592 mmHg 63%
    02:00 +12°C° 0 mm 1 mps 591 mmHg 60%
    03:00 +11°C° 0 mm 1 mps 591 mmHg 60%
    04:00 +11°C° 0 mm 1 mps 591 mmHg 60%
    05:00 +11°C° 0 mm 1 mps 591 mmHg 59%
    06:00 +13°C° 0 mm 1 mps 592 mmHg 53%
    07:00 +15°C° 0 mm 1 mps 594 mmHg 47%
    08:00 +18°C° 0 mm 1 mps 595 mmHg 41%
    09:00 +20°C° 0 mm 1 mps 595 mmHg 34%
    10:00 +23°C° 0 mm 1 mps 596 mmHg 27%
    11:00 +25°C° 0 mm 1 mps 596 mmHg 20%
    12:00 +25°C° 0 mm 1 mps 596 mmHg 20%
    13:00 +25°C° 0 mm 1 mps 595 mmHg 19%
    14:00 +25°C° 0 mm 2 mps 595 mmHg 19%
    15:00 +23°C° 0 mm 1 mps 594 mmHg 29%
    16:00 +21°C° 0 mm 1 mps 593 mmHg 39%
    17:00 +18°C° 0 mm 1 mps 592 mmHg 49%
    18:00 +16°C° 0 mm 1 mps 592 mmHg 51%
    19:00 +16°C° 0 mm 1 mps 592 mmHg 52%
    20:00 +15°C° 0 mm 1 mps 592 mmHg 54%
    21:00 +15°C° 0 mm 1 mps 592 mmHg 53%
    22:00 +15°C° 0 mm 2 mps 592 mmHg 53%
    23:00 +14°C° 0 mm 2 mps 592 mmHg 52%

    Day after tomorrow, 10 December, Tuesday

    Time Temperature Precipitation Wind Pressure Humidity
    00:00 +14°C° 0 mm 2 mps 592 mmHg 54%
    01:00 +14°C° 0 mm 2 mps 591 mmHg 57%
    02:00 +13°C° 0 mm 2 mps 591 mmHg 59%
    03:00 +13°C° 0 mm 2 mps 591 mmHg 62%
    04:00 +13°C° 0 mm 2 mps 591 mmHg 64%
    05:00 +12°C° 0 mm 2 mps 591 mmHg 66%
    06:00 +14°C° 0 mm 2 mps 592 mmHg 62%
    07:00 +16°C° 0 mm 2 mps 593 mmHg 58%
    08:00 +18°C° 0 mm 2 mps 594 mmHg 53%
    09:00 +20°C° 0 mm 1 mps 595 mmHg 47%
    10:00 +22°C° 0 mm 1 mps 595 mmHg 41%
    11:00 +24°C° 0 mm 1 mps 596 mmHg 35%
    12:00 +24°C° 0 mm 1 mps 595 mmHg 34%
    13:00 +24°C° 0 mm 2 mps 595 mmHg 33%
    14:00 +24°C° 0 mm 2 mps 595 mmHg 32%
    15:00 +21°C° 0 mm 2 mps 595 mmHg 46%
    16:00 +19°C° 0 mm 2 mps 594 mmHg 61%
    17:00 +16°C° 0 mm 3 mps 593 mmHg 75%
    18:00 +16°C° 0.2 mm 3 mps 594 mmHg 80%
    19:00 +15°C° 0.2 mm 2 mps 595 mmHg 85%
    20:00 +14°C° 0.2 mm 2 mps 595 mmHg 90%
    21:00 +13°C° 0.2 mm 2 mps 595 mmHg 90%
    22:00 +13°C° 0.2 mm 2 mps 595 mmHg 90%
    23:00 +12°C° 0.2 mm 2 mps 595 mmHg 90%

    11 December, Wednesday

    Time Temperature Precipitation Wind Pressure Humidity
    00:00 +12°C° 0 mm 2 mps 595 mmHg 91%
    01:00 +10°C° 0 mm 2 mps 595 mmHg 92%
    02:00 +10°C° 0 mm 2 mps 594 mmHg 93%
    03:00 +9°C° 0 mm 2 mps 595 mmHg 92%
    04:00 +9°C° 0 mm 2 mps 595 mmHg 92%
    05:00 +9°C° 0 mm 2 mps 595 mmHg 92%
    06:00 +9°C° 0 mm 2 mps 595 mmHg 90%
    07:00 +9°C° 0 mm 2 mps 595 mmHg 88%
    08:00 +9°C° 0 mm 2 mps 596 mmHg 86%
    09:00 +10°C° 0 mm 2 mps 596 mmHg 80%
    10:00 +12°C° 0 mm 2 mps 596 mmHg 75%
    11:00 +13°C° 0 mm 2 mps 596 mmHg 69%
    12:00 +13°C° 0 mm 2 mps 595 mmHg 67%
    13:00 +14°C° 0 mm 2 mps 595 mmHg 65%
    14:00 +13°C° 0 mm 3 mps 595 mmHg 63%
    15:00 +13°C° 0 mm 2 mps 594 mmHg 70%
    16:00 +12°C° 0 mm 2 mps 594 mmHg 76%
    17:00 +10°C° 0 mm 2 mps 594 mmHg 83%
    18:00 +9°C° 0 mm 2 mps 594 mmHg 84%
    19:00 +10°C° 0 mm 1 mps 594 mmHg 86%
    20:00 +10°C° 0 mm 1 mps 595 mmHg 88%
    21:00 +10°C° 0 mm 1 mps 594 mmHg 88%
    22:00 +9°C° 0 mm 0 mps 594 mmHg 89%
    23:00 +9°C° 0 mm 0 mps 594 mmHg 89%

    12 December, Thursday

    Time Temperature Precipitation Wind Pressure Humidity
    00:00 +8°C° 0 mm 0 mps 594 mmHg 89%
    01:00 +8°C° 0 mm 0 mps 593 mmHg 90%
    02:00 +8°C° 0 mm 0 mps 593 mmHg 90%
    03:00 +8°C° 0 mm 0 mps 593 mmHg 88%
    04:00 +9°C° 0 mm 1 mps 593 mmHg 86%
    05:00 +9°C° 0 mm 1 mps 593 mmHg 85%
    06:00 +11°C° 0 mm 1 mps 594 mmHg 76%
    07:00 +13°C° 0 mm 1 mps 595 mmHg 68%
    08:00 +15°C° 0 mm 1 mps 596 mmHg 60%
    09:00 +18°C° 0 mm 1 mps 597 mmHg 53%
    10:00 +20°C° 0 mm 1 mps 597 mmHg 46%
    11:00 +21°C° 0 mm 2 mps 598 mmHg 39%
    12:00 +21°C° 0 mm 2 mps 597 mmHg 40%
    13:00 +21°C° 0 mm 2 mps 596 mmHg 42%
    14:00 +21°C° 0 mm 3 mps 596 mmHg 44%
    15:00 +19°C° 0.1 mm 2 mps 595 mmHg 54%
    16:00 +17°C° 0.1 mm 2 mps 594 mmHg 65%
    17:00 +15°C° 0.1 mm 1 mps 594 mmHg 75%
    18:00 +15°C° 0.1 mm 1 mps 594 mmHg 75%
    19:00 +15°C° 0.1 mm 1 mps 594 mmHg 75%
    20:00 +15°C° 0.1 mm 1 mps 594 mmHg 76%
    21:00 +14°C° 0 mm 1 mps 594 mmHg 75%
    22:00 +13°C° 0 mm 0 mps 594 mmHg 75%
    23:00 +13°C° 0 mm 0 mps 594 mmHg 75%

    13 December, Friday

    Time Temperature Precipitation Wind Pressure Humidity
    00:00 +12°C° 0 mm 0 mps 594 mmHg 77%
    01:00 +12°C° 0 mm 0 mps 594 mmHg 79%
    02:00 +11°C° 0 mm 0 mps 593 mmHg 80%
    03:00 +11°C° 0 mm 0 mps 593 mmHg 82%
    04:00 +11°C° 0 mm 0 mps 593 mmHg 84%
    05:00 +10°C° 0 mm 0 mps 593 mmHg 86%
    06:00 +11°C° 0 mm 0 mps 594 mmHg 82%
    07:00 +12°C° 0 mm 0 mps 595 mmHg 78%
    08:00 +13°C° 0 mm 0 mps 596 mmHg 74%
    09:00 +16°C° 0 mm 1 mps 596 mmHg 68%
    10:00 +18°C° 0 mm 1 mps 596 mmHg 61%
    11:00 +18°C° 0 mm 2 mps 596 mmHg 55%
    12:00 +18°C° 0 mm 2 mps 596 mmHg 55%
    13:00 +19°C° 0 mm 2 mps 595 mmHg 54%
    14:00 +19°C° 0 mm 3 mps 594 mmHg 53%
    15:00 +17°C° 0 mm 2 mps 594 mmHg 62%
    16:00 +16°C° 0 mm 2 mps 593 mmHg 71%
    17:00 +14°C° 0 mm 1 mps 592 mmHg 80%
    18:00 +13°C° 0 mm 1 mps 593 mmHg 83%
    19:00 +13°C° 0 mm 1 mps 593 mmHg 86%
    20:00 +11°C° 0 mm 0 mps 593 mmHg 89%
    21:00 +11°C° 0 mm 0 mps 593 mmHg 87%
    22:00 +12°C° 0 mm 1 mps 593 mmHg 85%
    23:00 +12°C° 0 mm 1 mps 593 mmHg 84%
    Show more